Fryeburg, ME

7:24 PM EDT on April 28, 2017 (GMT -0400)
Eastern Slopes Regional

Weather History for KIZG - January, 2014

Change the Weather History Date:

Friday, January 17, 2014

  Actual Average Record
Temperature  
Mean Temperature 32 °F -  
Max Temperature 41 °F 24 °F 46 °F (1999)
Min Temperature 24 °F 3 °F -22 °F (2009)
Degree Days  
Heating Degree Days 32    
Moisture  
Dew Point 30 °F    
Average Humidity 89    
Maximum Humidity 100    
Minimum Humidity 57    
Precipitation  
Precipitation 0.01 in - - ()
Sea Level Pressure  
Sea Level Pressure 29.90 in    
Wind  
Wind Speed 1 mph (WSW)    
Max Wind Speed 7 mph    
Max Gust Speed -    
Visibility 5 miles    
Events Fog , Snow    
Averages and records for this station are not official NWS values.
T = Trace of Precipitation, MM = Missing Value Source: NWS Daily Summary

Daily Weather History Graph

Daily Weather History Graph

Search for Another Location

Airport or City:

Trip Planner

Search our weather history database for the weather conditions in past years. The results will help you decide how hot, cold, wet, or windy it might be!

Date:

Astronomy

Jan. 17, 2014 Rise Set
Actual Time 7:14 AM EST 4:34 PM EST
Civil Twilight 6:42 AM EST 5:06 PM EST
Nautical Twilight 6:06 AM EST 5:41 PM EST
Astronomical Twilight 5:32 AM EST 6:16 PM EST
Moon 6:22 PM EST (1/17) 7:35 AM EST (1/17)
Length of Visible Light 10h 23m
Length of Day
9h 19m
Full, 98% of the Moon is Illuminated
Jan 17
Full
Jan 24
Last Quarter
Jan 30
New
Feb 6
First Quarter
Feb 14
Full

Hourly Weather History & Observations

Time (EST) Temp. Windchill Dew Point Humidity Pressure Visibility Wind Dir Wind Speed Gust Speed Precip Events Conditions
12:28 AM 32.0 °F - 32.0 °F 100% 29.91 in 0.8 mi Calm Calm - N/A   Mist
12:54 AM 32.0 °F - 32.0 °F 100% 29.93 in 0.8 mi Calm Calm - 0.00 in Snow Light Snow
1:10 AM 33.1 °F - 32.0 °F 96% 29.90 in 0.8 mi Calm Calm - 0.01 in Snow Light Snow
1:38 AM 32.0 °F - 32.0 °F 100% 29.90 in 0.5 mi Calm Calm - 0.01 in Fog Fog
1:54 AM 32.0 °F - 30.9 °F 96% 29.92 in 0.5 mi Calm Calm - 0.01 in Fog Fog
2:39 AM 33.1 °F - 30.9 °F 92% 29.90 in 0.5 mi Calm Calm - N/A Fog Fog
2:54 AM 33.1 °F - 30.9 °F 92% 29.91 in 0.8 mi Calm Calm - N/A   Mist
3:10 AM 33.1 °F - 32.0 °F 96% 29.89 in 0.8 mi Calm Calm - N/A   Mist
3:21 AM 33.1 °F - 30.9 °F 92% 29.89 in 0.8 mi Calm Calm - N/A   Mist
3:54 AM 32.0 °F - 30.9 °F 96% 29.91 in 0.5 mi Calm Calm - N/A Fog Fog
4:02 AM 33.1 °F - 30.9 °F 92% 29.89 in 0.8 mi Calm Calm - N/A   Mist
4:45 AM 33.1 °F - 32.0 °F 96% 29.89 in 0.8 mi Calm Calm - N/A   Mist
4:54 AM 33.1 °F - 32.0 °F 96% 29.91 in 0.8 mi Calm Calm - N/A   Mist
5:12 AM 33.1 °F - 32.0 °F 96% 29.89 in 0.8 mi Calm Calm - N/A   Mist
5:25 AM 32.0 °F - 30.9 °F 96% 29.89 in 0.5 mi Calm Calm - N/A Fog Fog
5:54 AM 32.0 °F - 32.0 °F 100% 29.91 in 0.8 mi Calm Calm - N/A   Mist
6:00 AM 32.0 °F - 32.0 °F 100% 29.89 in 1.0 mi Calm Calm - N/A   Mist
6:09 AM 33.1 °F - 30.9 °F 92% 29.89 in 0.8 mi Calm Calm - N/A   Mist
6:11 AM 33.1 °F - 30.9 °F 92% 29.89 in 1.0 mi Calm Calm - N/A   Mist
6:35 AM 33.1 °F - 30.9 °F 92% 29.90 in 2.0 mi Calm Calm - N/A   Overcast
6:54 AM 33.1 °F - 30.9 °F 92% 29.92 in 1.8 mi Calm Calm - N/A   Overcast
7:10 AM 33.1 °F - 32.0 °F 96% 29.90 in 1.2 mi Calm Calm - N/A   Overcast
7:27 AM 32.0 °F - 32.0 °F 100% 29.91 in 0.5 mi Calm Calm - N/A Fog Fog
8:49 AM 33.8 °F - 32.0 °F 93% 29.92 in 0.5 mi Calm Calm - N/A Fog Fog
8:54 AM 34.0 °F - 33.1 °F 96% 29.94 in 0.5 mi Calm Calm - N/A Fog Fog
9:23 AM 34.0 °F 31.0 °F 32.0 °F 92% 29.92 in 1.8 mi NNW 3.5 mph - N/A   Overcast
9:28 AM 34.0 °F 31.0 °F 33.1 °F 96% 29.92 in 3.0 mi NNW 3.5 mph - N/A   Overcast
9:37 AM 34.0 °F 31.0 °F 33.1 °F 96% 29.92 in 4.0 mi NNW 3.5 mph - N/A   Overcast
9:50 AM 35.6 °F - 33.8 °F 93% 29.91 in 9.0 mi Calm Calm - N/A   Overcast
9:54 AM 34.0 °F - 32.0 °F 92% 29.93 in 10.0 mi Calm Calm - N/A   Mostly Cloudy
10:54 AM 36.0 °F 33.3 °F 32.0 °F 86% 29.92 in 10.0 mi WSW 3.5 mph - N/A   Overcast
11:54 AM 37.9 °F 35.5 °F 30.0 °F 73% 29.89 in 10.0 mi SW 3.5 mph - N/A   Overcast
12:41 PM 37.9 °F 32.7 °F 28.9 °F 70% 29.86 in 10.0 mi SW 6.9 mph - N/A   Overcast
12:54 PM 37.9 °F 32.7 °F 28.0 °F 68% 29.87 in 10.0 mi SSW 6.9 mph - N/A   Overcast
1:18 PM 37.9 °F 35.5 °F 28.9 °F 70% 29.86 in 10.0 mi Variable 3.5 mph - N/A   Overcast
1:44 PM 39.0 °F 35.7 °F 28.0 °F 65% 29.86 in 10.0 mi West 4.6 mph - N/A   Scattered Clouds
1:54 PM 39.9 °F 35.8 °F 28.0 °F 63% 29.87 in 10.0 mi WSW 5.8 mph - N/A   Partly Cloudy
2:54 PM 41.0 °F - 28.0 °F 60% 29.88 in 10.0 mi Calm Calm - N/A   Clear
3:54 PM 39.0 °F 36.8 °F 25.0 °F 57% 29.89 in 10.0 mi SW 3.5 mph - N/A   Clear
4:54 PM 30.0 °F 25.2 °F 26.1 °F 85% 29.90 in 10.0 mi SSW 4.6 mph - N/A   Clear
5:54 PM 27.0 °F 23.0 °F 25.0 °F 92% 29.92 in 10.0 mi South 3.5 mph - N/A   Clear
6:54 PM 26.1 °F - 24.1 °F 92% 29.92 in 10.0 mi Calm Calm - N/A   Clear
7:54 PM 26.1 °F 19.4 °F 23.0 °F 88% 29.91 in 10.0 mi SSW 5.8 mph - N/A   Clear
8:54 PM 26.1 °F - 21.9 °F 84% 29.93 in 10.0 mi Calm Calm - N/A   Clear
9:54 PM 26.1 °F 21.9 °F 21.9 °F 84% 29.94 in 10.0 mi SSW 3.5 mph - N/A   Clear
10:54 PM 24.1 °F 18.2 °F 21.9 °F 91% 29.92 in 10.0 mi WSW 4.6 mph - N/A   Mostly Cloudy
11:54 PM 24.1 °F - 21.0 °F 88% 29.92 in 10.0 mi Calm Calm - N/A   Overcast